QPF
0.00 0.00 0.00 0.00 0.00 0.00 0.00 0.00 0.00 0.00 0.00 0.00 0.00 0.00 0.00 0.00 0.00 0.00 0.00 0.00 0.00 0.00 0.01 0.03 0.08 0.06 0.02 0.00 0.00 0.00 0.00 0.02 0.04 0.03 0.01 0.01 0.00 0.00 0.00 0.00 0.00 0.00 0.01 0.01
0.00 0.00 0.00 0.00 0.00 0.00 0.00 0.00 0.00 0.00 0.00 0.00 0.00 0.00 0.00 0.00 0.00 0.00 0.00 0.00 0.00 0.00 0.01 0.03 0.05 0.04 0.02 0.00 0.00 0.01 0.01 0.02 0.02 0.01 0.01 0.01 0.00 0.00 0.00 0.00 0.01 0.01 0.01 0.01
0.00 0.00 0.00 0.00 0.00 0.00 0.00 0.00 0.00 0.00 0.00 0.00 0.00 0.00 0.00 0.00 0.00 0.00 0.00 0.00 0.00 0.00 0.00 0.01 0.02 0.02 0.02 0.00 0.00 0.00 0.01 0.01 0.01 0.01 0.01 0.01 0.00 0.00 0.00 0.01 0.01 0.01 0.01 0.02
0.00 0.00 0.00 0.00 0.00 0.00 0.00 0.00 0.00 0.00 0.00 0.00 0.00 0.00 0.00 0.00 0.00 0.00 0.00 0.00 0.00 0.00 0.00 0.01 0.01 0.01 0.01 0.00 0.00 0.00 0.00 0.00 0.00 0.00 0.00 0.00 0.00 0.00 0.00 0.01 0.01 0.01 0.01 0.00
0.00 0.00 0.00 0.00 0.00 0.00 0.00 0.00 0.00 0.00 0.00 0.00 0.00 0.00 0.00 0.00 0.00 0.00 0.00 0.00 0.00 0.00 0.01 0.01 0.01 0.01 0.01 0.00 0.00 0.00 0.00 0.00 0.00 0.00 0.00 0.00 0.00 0.00 0.00 0.00 0.00 0.00 0.00 0.00
0.00 0.00 0.00 0.00 0.00 0.00 0.00 0.00 0.00 0.00 0.00 0.00 0.00 0.00 0.00 0.00 0.00 0.00 0.00 0.01 0.01 0.01 0.01 0.02 0.02 0.01 0.01 0.00 0.00 0.00 0.00 0.00 0.00 0.00 0.00 0.00 0.00 0.00 0.00 0.00 0.00 0.00 0.00 0.00
0.00 0.00 0.00 0.00 0.00 0.00 0.00 0.00 0.00 0.00 0.00 0.00 0.00 0.00 0.00 0.00 0.00 0.00 0.00 0.01 0.01 0.01 0.01 0.01 0.02 0.01 0.00 0.00 0.00 0.00 0.00 0.00 0.00 0.00 0.00 0.00 0.00 0.00 0.00 0.00 0.00 0.00 0.00 0.00
0.00 0.00 0.00 0.00 0.00 0.00 0.00 0.00 0.00 0.00 0.00 0.00 0.00 0.00 0.00 0.00 0.00 0.00 0.00 0.00 0.01 0.01 0.01 0.01 0.01 0.00 0.00 0.00 0.00 0.00 0.00 0.00 0.00 0.00 0.00 0.00 0.00 0.00 0.00 0.00 0.00 0.00 0.00 0.00
0.00 0.00 0.00 0.00 0.00 0.00 0.00 0.00 0.00 0.00 0.00 0.00 0.00 0.00 0.00 0.00 0.00 0.00 0.00 0.00 0.01 0.02 0.03 0.02 0.01 0.00 0.00 0.00 0.00 0.00 0.00 0.00 0.00 0.00 0.00 0.00 0.00 0.00 0.00 0.00 0.00 0.00 0.00 0.00
0.00 0.00 0.00 0.00 0.00 0.00 0.00 0.00 0.00 0.00 0.00 0.00 0.00 0.00 0.00 0.00 0.00 0.00 0.00 0.01 0.02 0.04 0.05 0.04 0.02 0.01 0.00 0.00 0.00 0.00 0.00 0.00 0.00 0.00 0.00 0.00 0.00 0.00 0.00 0.00 0.00 0.00 0.00 0.00
0.00 0.00 0.00 0.00 0.00 0.00 0.00 0.00 0.00 0.00 0.00 0.00 0.00 0.00 0.00 0.00 0.00 0.00 0.00 0.01 0.05 0.08 0.08 0.07 0.05 0.01 0.00 0.00 0.00 0.01 0.01 0.00 0.00 0.00 0.00 0.00 0.00 0.00 0.00 0.00 0.00 0.00 0.00 0.00
0.00 0.00 0.00 0.00 0.00 0.00 0.00 0.00 0.00 0.00 0.00 0.00 0.00 0.00 0.00 0.00 0.00 0.00 0.02 0.05 0.09 0.09 0.08 0.07 0.06 0.03 0.04 0.04 0.04 0.02 0.01 0.00 0.00 0.00 0.00 0.00 0.00 0.00 0.00 0.00 0.00 0.00 0.00 0.00
0.00 0.00 0.00 0.00 0.00 0.00 0.00 0.00 0.00 0.00 0.00 0.00 0.00 0.00 0.00 0.00 0.00 0.03 0.06 0.08 0.07 0.07 0.07 0.05 0.05 0.06 0.07 0.05 0.02 0.01 0.00 0.00 0.00 0.00 0.00 0.00 0.00 0.00 0.00 0.00 0.00 0.00 0.00 0.00
0.00 0.00 0.00 0.00 0.00 0.00 0.00 0.00 0.00 0.00 0.00 0.00 0.00 0.00 0.00 0.00 0.01 0.03 0.05 0.06 0.07 0.06 0.07 0.08 0.07 0.07 0.06 0.04 0.01 0.00 0.00 0.00 0.00 0.00 0.00 0.00 0.00 0.00 0.00 0.00 0.00 0.00 0.00 0.00
0.00 0.00 0.00 0.00 0.00 0.00 0.00 0.00 0.00 0.00 0.00 0.00 0.00 0.00 0.01 0.01 0.02 0.04 0.06 0.09 0.11 0.10 0.10 0.11 0.10 0.08 0.06 0.02 0.00 0.00 0.00 0.00 0.00 0.00 0.00 0.00 0.00 0.00 0.00 0.00 0.00 0.00 0.00 0.00
0.00 0.00 0.00 0.00 0.00 0.00 0.00 0.00 0.00 0.01 0.01 0.01 0.00 0.00 0.00 0.00 0.02 0.06 0.08 0.11 0.14 0.13 0.10 0.09 0.07 0.04 0.02 0.00 0.00 0.00 0.00 0.00 0.00 0.00 0.00 0.00 0.00 0.00 0.00 0.00 0.00 0.00 0.00 0.00
0.00 0.00 0.00 0.00 0.00 0.00 0.00 0.00 0.00 0.00 0.00 0.01 0.00 0.00 0.00 0.00 0.01 0.02 0.04 0.07 0.11 0.09 0.05 0.04 0.02 0.01 0.00 0.00 0.00 0.00 0.00 0.00 0.00 0.00 0.00 0.00 0.00 0.00 0.00 0.00 0.00 0.00 0.00 0.00
0.00 0.00 0.00 0.00 0.00 0.00 0.00 0.00 0.00 0.00 0.00 0.00 0.00 0.00 0.00 0.00 0.01 0.02 0.04 0.07 0.07 0.05 0.03 0.01 0.01 0.00 0.00 0.00 0.00 0.00 0.00 0.00 0.00 0.00 0.00 0.00 0.00 0.00 0.00 0.00 0.00 0.00 0.00 0.00
0.00 0.00 0.00 0.00 0.00 0.00 0.00 0.00 0.00 0.00 0.00 0.00 0.00 0.00 0.00 0.01 0.02 0.02 0.03 0.04 0.04 0.04 0.02 0.01 0.00 0.00 0.00 0.00 0.00 0.00 0.00 0.00 0.00 0.00 0.00 0.00 0.00 0.00 0.00 0.00 0.00 0.00 0.00 0.00
0.00 0.00 0.00 0.00 0.00 0.00 0.00 0.00 0.00 0.00 0.00 0.00 0.00 0.00 0.01 0.02 0.04 0.04 0.04 0.05 0.06 0.05 0.04 0.02 0.00 0.00 0.00 0.00 0.00 0.00 0.00 0.00 0.00 0.00 0.00 0.00 0.00 0.00 0.00 0.00 0.00 0.00 0.00 0.00
0.00 0.00 0.00 0.00 0.00 0.00 0.00 0.00 0.00 0.00 0.00 0.00 0.02 0.03 0.04 0.06 0.09 0.08 0.07 0.09 0.13 0.11 0.06 0.02 0.00 0.00 0.00 0.00 0.00 0.00 0.00 0.00 0.00 0.00 0.00 0.00 0.00 0.00 0.00 0.00 0.00 0.00 0.00 0.00
0.00 0.00 0.00 0.00 0.00 0.00 0.00 0.00 0.00 0.00 0.00 0.01 0.03 0.05 0.05 0.10 0.13 0.11 0.09 0.10 0.09 0.05 0.02 0.00 0.00 0.00 0.00 0.00 0.00 0.00 0.00 0.00 0.00 0.00 0.00 0.00 0.00 0.00 0.00 0.00 0.00 0.00 0.00 0.00
0.00 0.00 0.00 0.00 0.00 0.00 0.00 0.00 0.00 0.00 0.01 0.01 0.04 0.06 0.06 0.10 0.12 0.08 0.04 0.02 0.02 0.01 0.00 0.00 0.00 0.00 0.00 0.00 0.00 0.00 0.00 0.00 0.00 0.00 0.00 0.00 0.00 0.00 0.00 0.00 0.00 0.00 0.00 0.00
0.00 0.00 0.00 0.00 0.00 0.00 0.00 0.00 0.01 0.03 0.05 0.06 0.07 0.08 0.06 0.05 0.02 0.01 0.00 0.00 0.00 0.00 0.00 0.00 0.00 0.00 0.00 0.00 0.00 0.00 0.00 0.00 0.00 0.00 0.00 0.00 0.00 0.00 0.00 0.00 0.00 0.00 0.00 0.00
0.00 0.00 0.00 0.00 0.00 0.00 0.00 0.01 0.04 0.06 0.08 0.07 0.07 0.08 0.04 0.01 0.00 0.00 0.00 0.00 0.00 0.00 0.00 0.00 0.00 0.00 0.00 0.00 0.00 0.00 0.00 0.00 0.00 0.00 0.00 0.00 0.00 0.00 0.00 0.00 0.00 0.00 0.00 0.00
0.00 0.00 0.00 0.00 0.00 0.01 0.03 0.03 0.06 0.09 0.11 0.13 0.11 0.06 0.02 0.00 0.00 0.00 0.00 0.00 0.00 0.00 0.00 0.00 0.00 0.00 0.00 0.00 0.00 0.00 0.00 0.00 0.00 0.00 0.00 0.00 0.00 0.00 0.00 0.00 0.00 0.00 0.00 0.00
MSLP
1012.34 1013.11 1013.64 1013.93 1014.04 1014.04 1014.00 1013.99 1014.04 1014.12 1014.21 1014.27 1014.24 1014.12 1013.90 1013.64 1013.39 1013.21 1013.17 1013.29 1013.56 1013.95 1014.41 1014.85 1015.23 1015.51 1015.66 1015.73 1015.74 1015.74 1015.80 1015.94 1016.18 1016.49 1016.86 1017.25 1017.61 1017.91 1018.13 1018.28 1018.38 1018.44 1018.50 1018.57
1012.67 1013.34 1013.76 1013.97 1014.04 1014.05 1014.08 1014.19 1014.38 1014.61 1014.82 1014.95 1014.95 1014.80 1014.52 1014.15 1013.80 1013.54 1013.44 1013.53 1013.81 1014.23 1014.73 1015.21 1015.61 1015.89 1016.03 1016.07 1016.05 1016.04 1016.10 1016.25 1016.53 1016.89 1017.32 1017.75 1018.14 1018.45 1018.67 1018.80 1018.88 1018.92 1018.97 1019.04
1012.68 1013.25 1013.57 1013.72 1013.77 1013.83 1013.97 1014.22 1014.56 1014.93 1015.25 1015.44 1015.45 1015.24 1014.87 1014.41 1013.95 1013.61 1013.45 1013.54 1013.84 1014.32 1014.88 1015.43 1015.90 1016.22 1016.40 1016.46 1016.45 1016.45 1016.53 1016.71 1017.02 1017.43 1017.90 1018.36 1018.77 1019.08 1019.29 1019.41 1019.46 1019.48 1019.51 1019.56
1012.38 1012.82 1013.06 1013.17 1013.26 1013.41 1013.68 1014.09 1014.60 1015.11 1015.53 1015.77 1015.75 1015.48 1015.01 1014.42 1013.86 1013.43 1013.24 1013.32 1013.67 1014.22 1014.89 1015.55 1016.12 1016.54 1016.79 1016.91 1016.95 1017.00 1017.11 1017.33 1017.67 1018.10 1018.59 1019.06 1019.47 1019.78 1019.97 1020.06 1020.08 1020.07 1020.07 1020.10
1011.85 1012.16 1012.32 1012.42 1012.55 1012.82 1013.26 1013.86 1014.54 1015.19 1015.70 1015.96 1015.92 1015.58 1014.99 1014.29 1013.62 1013.11 1012.88 1012.97 1013.38 1014.02 1014.80 1015.60 1016.31 1016.85 1017.22 1017.44 1017.56 1017.66 1017.81 1018.06 1018.42 1018.86 1019.35 1019.82 1020.21 1020.50 1020.66 1020.72 1020.70 1020.65 1020.60 1020.58
1011.21 1011.38 1011.47 1011.57 1011.78 1012.18 1012.79 1013.57 1014.42 1015.20 1015.79 1016.08 1016.00 1015.58 1014.89 1014.08 1013.31 1012.74 1012.47 1012.58 1013.04 1013.78 1014.68 1015.63 1016.48 1017.18 1017.69 1018.02 1018.23 1018.40 1018.59 1018.86 1019.21 1019.64 1020.10 1020.54 1020.90 1021.15 1021.27 1021.29 1021.23 1021.14 1021.04 1020.97
1010.62 1010.65 1010.66 1010.76 1011.04 1011.57 1012.33 1013.27 1014.26 1015.16 1015.81 1016.11 1016.00 1015.52 1014.75 1013.85 1013.00 1012.38 1012.09 1012.22 1012.73 1013.56 1014.58 1015.66 1016.66 1017.50 1018.15 1018.60 1018.90 1019.13 1019.35 1019.62 1019.96 1020.35 1020.77 1021.15 1021.46 1021.66 1021.75 1021.72 1021.62 1021.48 1021.34 1021.21
1010.20 1010.09 1010.03 1010.12 1010.45 1011.06 1011.94 1012.99 1014.08 1015.05 1015.74 1016.04 1015.90 1015.38 1014.55 1013.60 1012.72 1012.07 1011.79 1011.94 1012.50 1013.41 1014.53 1015.71 1016.84 1017.81 1018.57 1019.12 1019.50 1019.78 1020.02 1020.28 1020.58 1020.92 1021.27 1021.59 1021.83 1021.98 1022.02 1021.96 1021.82 1021.64 1021.45 1021.28
1010.04 1009.81 1009.66 1009.73 1010.06 1010.71 1011.63 1012.73 1013.85 1014.83 1015.52 1015.81 1015.65 1015.11 1014.27 1013.32 1012.45 1011.82 1011.58 1011.76 1012.37 1013.33 1014.52 1015.79 1017.01 1018.06 1018.91 1019.54 1019.98 1020.29 1020.54 1020.77 1021.02 1021.29 1021.57 1021.81 1021.99 1022.08 1022.07 1021.97 1021.80 1021.59 1021.37 1021.16
1010.17 1009.82 1009.61 1009.61 1009.91 1010.53 1011.41 1012.47 1013.54 1014.47 1015.10 1015.36 1015.20 1014.66 1013.86 1012.97 1012.17 1011.61 1011.43 1011.68 1012.34 1013.34 1014.58 1015.89 1017.15 1018.26 1019.16 1019.83 1020.31 1020.63 1020.87 1021.07 1021.26 1021.46 1021.66 1021.82 1021.93 1021.97 1021.92 1021.79 1021.60 1021.37 1021.14 1020.90
1010.53 1010.12 1009.83 1009.76 1009.98 1010.49 1011.26 1012.18 1013.12 1013.92 1014.47 1014.67 1014.50 1014.00 1013.29 1012.51 1011.84 1011.41 1011.34 1011.67 1012.39 1013.43 1014.68 1016.00 1017.27 1018.39 1019.30 1019.99 1020.48 1020.81 1021.03 1021.19 1021.33 1021.45 1021.57 1021.66 1021.71 1021.69 1021.60 1021.45 1021.25 1021.02 1020.78 1020.55
1011.04 1010.59 1010.25 1010.11 1010.21 1010.57 1011.16 1011.87 1012.61 1013.23 1013.64 1013.76 1013.59 1013.16 1012.58 1011.96 1011.47 1011.21 1011.29 1011.74 1012.53 1013.60 1014.84 1016.14 1017.39 1018.48 1019.38 1020.06 1020.54 1020.86 1021.05 1021.18 1021.27 1021.33 1021.38 1021.40 1021.39 1021.33 1021.21 1021.04 1020.84 1020.62 1020.40 1020.18
1011.61 1011.17 1010.80 1010.58 1010.56 1010.74 1011.10 1011.56 1012.05 1012.45 1012.69 1012.73 1012.56 1012.21 1011.78 1011.37 1011.09 1011.05 1011.30 1011.88 1012.74 1013.84 1015.07 1016.33 1017.52 1018.57 1019.42 1020.08 1020.54 1020.83 1021.01 1021.10 1021.14 1021.16 1021.15 1021.12 1021.05 1020.95 1020.81 1020.64 1020.45 1020.24 1020.04 1019.85
1012.16 1011.76 1011.40 1011.13 1010.99 1010.99 1011.10 1011.30 1011.51 1011.68 1011.75 1011.70 1011.53 1011.28 1011.02 1010.82 1010.78 1010.96 1011.41 1012.11 1013.05 1014.16 1015.36 1016.57 1017.69 1018.67 1019.46 1020.07 1020.50 1020.78 1020.93 1021.00 1021.02 1020.99 1020.94 1020.86 1020.75 1020.62 1020.47 1020.30 1020.12 1019.94 1019.77 1019.60
1012.66 1012.35 1012.02 1011.73 1011.49 1011.32 1011.21 1011.15 1011.11 1011.05 1010.95 1010.82 1010.66 1010.50 1010.40 1010.42 1010.62 1011.01 1011.63 1012.46 1013.46 1014.58 1015.73 1016.86 1017.90 1018.79 1019.52 1020.08 1020.47 1020.72 1020.86 1020.91 1020.90 1020.86 1020.77 1020.66 1020.53 1020.39 1020.23 1020.06 1019.90 1019.74 1019.60 1019.47
1013.15 1012.93 1012.66 1012.37 1012.06 1011.75 1011.46 1011.18 1010.91 1010.65 1010.41 1010.21 1010.06 1009.99 1010.05 1010.26 1010.66 1011.24 1012.01 1012.93 1013.97 1015.07 1016.17 1017.21 1018.15 1018.95 1019.60 1020.09 1020.45 1020.67 1020.80 1020.84 1020.82 1020.76 1020.66 1020.54 1020.40 1020.25 1020.10 1019.94 1019.80 1019.67 1019.56 1019.45
1013.65 1013.53 1013.33 1013.05 1012.70 1012.30 1011.86 1011.40 1010.96 1010.55 1010.20 1009.94 1009.81 1009.82 1010.00 1010.38 1010.93 1011.66 1012.54 1013.52 1014.56 1015.62 1016.64 1017.58 1018.41 1019.11 1019.68 1020.11 1020.42 1020.63 1020.74 1020.78 1020.77 1020.71 1020.61 1020.49 1020.35 1020.21 1020.07 1019.94 1019.82 1019.72 1019.62 1019.53
1014.24 1014.19 1014.04 1013.77 1013.40 1012.93 1012.40 1011.82 1011.26 1010.74 1010.32 1010.04 1009.93 1010.00 1010.29 1010.77 1011.44 1012.26 1013.19 1014.19 1015.21 1016.20 1017.12 1017.95 1018.67 1019.27 1019.75 1020.12 1020.39 1020.58 1020.69 1020.74 1020.73 1020.68 1020.60 1020.50 1020.38 1020.26 1020.15 1020.04 1019.95 1019.87 1019.79 1019.70
1014.92 1014.90 1014.77 1014.51 1014.12 1013.61 1013.01 1012.37 1011.73 1011.17 1010.72 1010.43 1010.35 1010.48 1010.84 1011.40 1012.13 1012.99 1013.94 1014.91 1015.87 1016.77 1017.58 1018.30 1018.90 1019.40 1019.80 1020.11 1020.35 1020.52 1020.63 1020.69 1020.71 1020.69 1020.64 1020.57 1020.49 1020.40 1020.32 1020.25 1020.18 1020.11 1020.04 1019.94
1015.66 1015.63 1015.49 1015.21 1014.79 1014.25 1013.62 1012.94 1012.29 1011.71 1011.27 1011.01 1010.97 1011.15 1011.56 1012.17 1012.93 1013.79 1014.71 1015.63 1016.51 1017.31 1018.01 1018.61 1019.11 1019.51 1019.84 1020.10 1020.30 1020.46 1020.58 1020.66 1020.71 1020.73 1020.73 1020.70 1020.66 1020.62 1020.57 1020.53 1020.49 1020.43 1020.35 1020.24
1016.38 1016.29 1016.10 1015.77 1015.31 1014.75 1014.11 1013.43 1012.80 1012.25 1011.85 1011.65 1011.66 1011.90 1012.35 1012.99 1013.75 1014.60 1015.47 1016.32 1017.10 1017.80 1018.40 1018.89 1019.29 1019.62 1019.88 1020.10 1020.28 1020.44 1020.57 1020.68 1020.77 1020.83 1020.87 1020.90 1020.91 1020.91 1020.90 1020.89 1020.86 1020.80 1020.71 1020.57
1016.97 1016.79 1016.51 1016.12 1015.62 1015.04 1014.40 1013.76 1013.18 1012.70 1012.38 1012.26 1012.34 1012.64 1013.14 1013.79 1014.55 1015.37 1016.18 1016.95 1017.65 1018.25 1018.75 1019.15 1019.47 1019.73 1019.94 1020.13 1020.30 1020.46 1020.61 1020.76 1020.89 1021.00 1021.10 1021.18 1021.24 1021.28 1021.30 1021.30 1021.27 1021.20 1021.08 1020.90
1017.33 1017.04 1016.66 1016.20 1015.66 1015.07 1014.46 1013.88 1013.38 1013.00 1012.79 1012.77 1012.95 1013.32 1013.87 1014.54 1015.29 1016.07 1016.83 1017.54 1018.15 1018.67 1019.08 1019.41 1019.66 1019.87 1020.05 1020.21 1020.38 1020.55 1020.73 1020.91 1021.08 1021.25 1021.40 1021.52 1021.63 1021.70 1021.74 1021.74 1021.70 1021.60 1021.45 1021.21
1017.39 1016.99 1016.53 1016.00 1015.44 1014.87 1014.31 1013.82 1013.43 1013.18 1013.10 1013.20 1013.48 1013.94 1014.53 1015.23 1015.98 1016.72 1017.43 1018.07 1018.61 1019.06 1019.40 1019.67 1019.87 1020.04 1020.20 1020.36 1020.53 1020.71 1020.92 1021.14 1021.36 1021.57 1021.76 1021.93 1022.06 1022.15 1022.19 1022.18 1022.11 1021.97 1021.76 1021.47
1017.16 1016.67 1016.14 1015.58 1015.03 1014.50 1014.03 1013.65 1013.40 1013.30 1013.35 1013.59 1013.98 1014.52 1015.16 1015.88 1016.62 1017.33 1017.99 1018.57 1019.05 1019.44 1019.73 1019.94 1020.11 1020.26 1020.40 1020.55 1020.73 1020.94 1021.18 1021.43 1021.69 1021.94 1022.16 1022.36 1022.50 1022.60 1022.62 1022.58 1022.46 1022.27 1021.99 1021.64
1016.68 1016.15 1015.60 1015.05 1014.55 1014.10 1013.74 1013.50 1013.40 1013.45 1013.66 1014.02 1014.51 1015.12 1015.81 1016.53 1017.25 1017.93 1018.54 1019.06 1019.48 1019.81 1020.05 1020.23 1020.37 1020.50 1020.63 1020.79 1020.99 1021.22 1021.48 1021.76 1022.05 1022.33 1022.58 1022.79 1022.94 1023.02 1023.01 1022.92 1022.75 1022.49 1022.15 1021.74
Thickness
5729 5716 5712 5720 5721 5720 5720 5717 5714 5727 5740 5734 5726 5722 5726 5736 5741 5738 5740 5745 5746 5738 5729 5723 5717 5716 5715 5713 5711 5708 5706 5704 5702 5696 5689 5682 5673 5667 5663 5658 5653 5648 5644 5640
5706 5705 5721 5723 5720 5716 5713 5708 5708 5722 5733 5725 5716 5715 5722 5726 5729 5732 5730 5728 5728 5726 5721 5715 5710 5708 5707 5705 5704 5701 5698 5695 5693 5689 5682 5673 5665 5657 5651 5645 5640 5636 5632 5628
5694 5709 5721 5713 5709 5705 5705 5702 5707 5712 5718 5715 5711 5705 5712 5718 5722 5724 5723 5722 5718 5717 5715 5709 5704 5701 5698 5695 5693 5689 5685 5682 5678 5674 5669 5662 5654 5647 5639 5632 5626 5622 5618 5613
5692 5708 5711 5707 5704 5701 5693 5709 5708 5708 5697 5687 5700 5681 5702 5709 5712 5715 5716 5715 5713 5712 5709 5704 5699 5694 5689 5685 5681 5675 5670 5667 5663 5660 5656 5649 5642 5633 5624 5618 5613 5609 5605 5599
5692 5705 5700 5695 5702 5702 5701 5713 5705 5702 5693 5681 5683 5676 5682 5699 5702 5709 5713 5713 5712 5711 5706 5699 5693 5688 5682 5677 5671 5664 5659 5654 5650 5645 5640 5633 5625 5617 5610 5605 5600 5594 5588 5582
5699 5711 5706 5704 5713 5709 5708 5703 5689 5679 5673 5664 5678 5668 5674 5689 5704 5709 5711 5711 5710 5706 5700 5692 5685 5679 5672 5665 5658 5650 5644 5637 5632 5627 5621 5615 5608 5602 5597 5591 5585 5578 5571 5565
5687 5699 5708 5711 5703 5705 5698 5678 5654 5655 5646 5656 5683 5670 5677 5703 5715 5717 5713 5708 5703 5698 5691 5684 5677 5669 5660 5652 5643 5635 5628 5620 5615 5611 5606 5601 5595 5590 5583 5578 5572 5564 5557 5551
5665 5674 5699 5705 5702 5693 5686 5674 5651 5642 5642 5659 5677 5664 5684 5705 5712 5715 5711 5703 5695 5688 5682 5674 5666 5657 5648 5638 5630 5622 5615 5608 5602 5597 5592 5587 5582 5577 5571 5566 5560 5554 5546 5540
5661 5672 5705 5706 5710 5701 5680 5670 5677 5658 5654 5645 5654 5671 5688 5699 5704 5707 5704 5695 5685 5676 5668 5661 5653 5645 5636 5627 5617 5609 5601 5594 5589 5585 5580 5575 5570 5565 5559 5553 5548 5543 5538 5531
5672 5669 5693 5704 5705 5702 5694 5683 5656 5650 5638 5634 5650 5663 5677 5687 5695 5699 5695 5686 5674 5664 5654 5648 5641 5633 5626 5616 5605 5597 5589 5583 5578 5575 5572 5567 5563 5558 5550 5543 5539 5535 5530 5522
5671 5663 5678 5690 5687 5686 5681 5674 5667 5651 5648 5641 5636 5657 5693 5696 5699 5698 5691 5680 5668 5656 5646 5640 5632 5625 5617 5609 5601 5593 5583 5575 5571 5568 5565 5561 5557 5552 5544 5537 5531 5526 5519 5511
5656 5654 5657 5674 5690 5694 5689 5680 5663 5651 5648 5644 5642 5659 5690 5692 5695 5693 5686 5675 5662 5650 5640 5632 5622 5614 5605 5599 5591 5584 5577 5572 5567 5560 5555 5551 5547 5542 5535 5528 5522 5515 5508 5501
5648 5643 5641 5653 5662 5673 5677 5678 5669 5657 5650 5638 5637 5658 5678 5686 5685 5682 5676 5665 5653 5640 5630 5621 5611 5602 5594 5585 5576 5570 5565 5561 5556 5550 5543 5539 5534 5529 5522 5515 5510 5503 5497 5490
5638 5628 5629 5635 5641 5649 5658 5667 5665 5654 5642 5638 5648 5661 5665 5666 5669 5668 5664 5655 5644 5633 5623 5612 5601 5591 5582 5573 5565 5559 5554 5550 5546 5539 5532 5526 5521 5516 5510 5505 5499 5493 5488 5481
5624 5617 5625 5631 5638 5644 5650 5655 5659 5657 5651 5647 5656 5660 5662 5660 5663 5662 5656 5645 5635 5626 5615 5603 5590 5579 5571 5564 5557 5551 5545 5540 5534 5527 5521 5516 5511 5506 5502 5498 5493 5487 5481 5474
5606 5607 5613 5617 5626 5630 5636 5647 5651 5655 5658 5655 5655 5656 5659 5652 5651 5650 5644 5636 5628 5617 5605 5593 5580 5570 5563 5557 5549 5542 5535 5529 5522 5517 5513 5508 5503 5498 5495 5492 5486 5480 5473 5465
5589 5594 5593 5591 5605 5616 5616 5637 5644 5648 5654 5651 5645 5651 5644 5639 5639 5639 5633 5626 5617 5606 5596 5583 5571 5562 5554 5547 5539 5531 5525 5518 5513 5510 5506 5501 5495 5491 5489 5486 5480 5473 5465 5455
5575 5576 5570 5573 5589 5589 5609 5629 5633 5633 5635 5634 5636 5638 5633 5628 5620 5617 5614 5609 5601 5594 5584 5571 5560 5551 5542 5535 5528 5521 5515 5510 5506 5502 5497 5492 5488 5486 5482 5476 5468 5460 5450 5439
5564 5565 5556 5555 5564 5575 5598 5610 5610 5613 5618 5621 5620 5618 5611 5609 5603 5595 5595 5592 5585 5576 5566 5556 5548 5538 5529 5523 5518 5513 5508 5503 5499 5495 5490 5486 5482 5477 5470 5462 5452 5442 5433 5424
5550 5548 5543 5541 5552 5556 5577 5587 5591 5596 5595 5604 5604 5602 5599 5600 5592 5581 5575 5572 5564 5556 5548 5540 5532 5525 5519 5514 5510 5506 5501 5497 5493 5488 5483 5478 5472 5464 5455 5446 5436 5427 5419 5411
5535 5528 5530 5527 5533 5543 5561 5566 5578 5573 5571 5576 5584 5587 5588 5584 5580 5566 5561 5556 5550 5543 5535 5528 5522 5516 5511 5507 5503 5500 5496 5491 5485 5480 5474 5466 5459 5450 5441 5431 5422 5414 5407 5399
5526 5520 5518 5510 5522 5531 5547 5550 5549 5549 5549 5558 5564 5564 5562 5560 5557 5553 5548 5543 5537 5531 5523 5518 5512 5509 5505 5502 5499 5495 5489 5483 5478 5471 5463 5455 5447 5439 5429 5420 5411 5403 5395 5388
5508 5509 5504 5507 5515 5528 5532 5536 5540 5539 5543 5549 5548 5548 5549 5548 5544 5540 5535 5530 5525 5520 5515 5510 5507 5504 5500 5496 5492 5487 5480 5475 5469 5461 5453 5445 5436 5426 5418 5410 5402 5394 5387 5381
5499 5500 5496 5500 5513 5521 5527 5532 5536 5538 5540 5542 5542 5542 5541 5537 5531 5527 5523 5518 5513 5509 5507 5505 5503 5499 5495 5491 5485 5479 5474 5468 5461 5452 5443 5434 5425 5416 5409 5402 5395 5387 5381 5376
5488 5490 5490 5496 5505 5514 5525 5529 5532 5533 5534 5535 5532 5530 5527 5524 5519 5514 5509 5506 5504 5502 5500 5499 5496 5493 5489 5483 5478 5474 5468 5462 5452 5443 5434 5424 5416 5408 5401 5394 5387 5381 5375 5369
5477 5479 5482 5492 5503 5508 5515 5523 5526 5526 5525 5524 5521 5517 5514 5514 5510 5504 5498 5496 5495 5495 5494 5493 5490 5486 5481 5476 5472 5468 5461 5454 5445 5435 5426 5417 5409 5400 5393 5386 5381 5376 5370 5364